Weather History for Hobart, OK

Change the Weather History Date:

Friday, May 3, 2013

  Actual Average Record
Temperature  
Mean Temperature 47 °F -  
Max Temperature 66 °F 75 °F 96 °F (2012)
Min Temperature 28 °F 50 °F 28 °F (2013)
Degree Days  
Heating Degree Days 18    
Moisture  
Dew Point 29 °F    
Average Humidity 56    
Maximum Humidity 92    
Minimum Humidity 21    
Precipitation  
Precipitation 0.00 in - - ()
Sea Level Pressure  
Sea Level Pressure 30.23 in    
Wind  
Wind Speed 8 mph (NNW)    
Max Wind Speed 20 mph    
Max Gust Speed 24 mph    
Visibility 10 miles    
Events      
Averages and records for this station are not official NWS values.
T = Trace of Precipitation, MM = Missing Value Source: NWS Daily Summary

Daily Weather History Graph

Daily Weather History Graph

Search for Another Location

Airport:

Trip Planner

Search our weather history database for the weather conditions in past years. The results will help you decide how hot, cold, wet, or windy it might be!

Date:

Astronomy

May. 03, 2013 Rise Set
Actual Time 6:43 AM CDT 8:23 PM CDT
Civil Twilight 6:15 AM CDT 8:50 PM CDT
Nautical Twilight 5:43 AM CDT 9:23 PM CDT
Astronomical Twilight 5:08 AM CDT 9:58 PM CDT
Moon 2:53 AM CDT (5/3) 2:33 PM CDT (5/3)
Length of Visible Light 14h 34m
Length of Day
13h 40m
Last Quarter, 37% of the Moon is Illuminated
May 3
Last Quarter
May 9
New
May 17
First Quarter
May 24
Full
May 31
Last Quarter

Hourly Weather History & Observations

Time (CDT) Temp. Windchill Dew Point Humidity Pressure Visibility Wind Dir Wind Speed Gust Speed Precip Events Conditions
12:53 AM 34.0 °F 28.0 °F 30.0 °F 85% 30.45 in 10.0 mi NNW 6.9 mph - N/A   Clear
1:53 AM 34.0 °F 26.6 °F 28.9 °F 82% 30.43 in 10.0 mi NNW 9.2 mph - N/A   Clear
2:53 AM 30.9 °F 27.5 °F 28.0 °F 89% 30.41 in 10.0 mi NNW 3.5 mph - N/A   Clear
3:53 AM 32.0 °F 27.5 °F 28.0 °F 85% 30.39 in 10.0 mi WNW 4.6 mph - N/A   Clear
4:53 AM 32.0 °F 28.7 °F 27.0 °F 82% 30.37 in 10.0 mi WNW 3.5 mph - N/A   Clear
5:53 AM 28.9 °F 21.1 °F 27.0 °F 92% 30.37 in 10.0 mi West 8.1 mph - N/A   Clear
6:53 AM 32.0 °F 24.2 °F 28.0 °F 85% 30.37 in 10.0 mi NNW 9.2 mph - N/A   Clear
7:53 AM 37.0 °F 30.4 °F 30.0 °F 76% 30.38 in 10.0 mi NNW 9.2 mph - N/A   Clear
8:53 AM 44.1 °F 39.0 °F 32.0 °F 63% 30.36 in 10.0 mi WNW 9.2 mph - N/A   Clear
9:53 AM 48.9 °F - 30.9 °F 50% 30.35 in 10.0 mi NW 10.4 mph - N/A   Clear
10:53 AM 54.0 °F - 28.0 °F 37% 30.31 in 10.0 mi NNW 15.0 mph - N/A   Clear
11:53 AM 57.9 °F - 28.0 °F 32% 30.28 in 10.0 mi NW 11.5 mph 21.9 mph N/A   Clear
12:53 PM 59.0 °F - 25.0 °F 27% 30.24 in 10.0 mi North 16.1 mph 21.9 mph N/A   Scattered Clouds
1:53 PM 63.0 °F - 26.1 °F 25% 30.19 in 10.0 mi North 19.6 mph 23.0 mph N/A   Scattered Clouds
2:53 PM 63.0 °F - 25.0 °F 24% 30.16 in 10.0 mi NNW 10.4 mph 24.2 mph N/A   Partly Cloudy
3:53 PM 64.0 °F - 23.0 °F 21% 30.10 in 10.0 mi NNW 12.7 mph 23.0 mph N/A   Clear
4:53 PM 64.9 °F - 24.1 °F 21% 30.06 in 10.0 mi NNW 10.4 mph 20.7 mph N/A   Clear
5:53 PM 66.0 °F - 25.0 °F 21% 30.04 in 10.0 mi North 11.5 mph 17.3 mph N/A   Clear
6:53 PM 64.0 °F - 25.0 °F 23% 30.03 in 10.0 mi NNE 10.4 mph - N/A   Clear
7:53 PM 57.0 °F - 37.9 °F 49% 30.03 in 10.0 mi ENE 6.9 mph - N/A   Clear
8:53 PM 48.9 °F - 37.0 °F 64% 30.04 in 10.0 mi East 6.9 mph - N/A   Clear
9:53 PM 46.0 °F 43.1 °F 36.0 °F 68% 30.05 in 10.0 mi ENE 5.8 mph - N/A   Clear
10:53 PM 42.1 °F 37.7 °F 36.0 °F 79% 30.06 in 10.0 mi East 6.9 mph - N/A   Clear
11:53 PM 43.0 °F 41.3 °F 35.1 °F 74% 30.04 in 10.0 mi East 3.5 mph - N/A   Clear